STARLINK-4475 (53545 NORAD) Tracking and Keplerian Element Data

This shows tracking and keplerian element data for the satellite.

Feedback or suggestion? Click here.




ElementValue
Catalog53545
NameSTARLINK-4475
Epoch Orbit1508
Epoch Day324.72635831
Epoch Year2022
RAAN73.4086
Inclination53.2186
Eccentricity0.0001705
Argument of Perigee44.7986
Mean Anonmoly315.3143
Mean Motion15.08827773
Decay Rate-1.876E-05
L11 53545U 22101U 22324.72635831 -.00001876 00000+0 -99812-4 0 9992
L22 53545 53.2186 73.4086 0001705 44.7986 315.3143 15.08827773 15080



Live tracking and technical data element details for STARLINK-4475 (NORAD 53545). STARLINK-4475 can be tracked NOW for your location showing map with azimuth and elevation plus other details from your city location.







IsCatalogInMostPopularTable: catalog: 53545, numindb: 2
Update: records affected: 1



GetName: 53545 STARLINK-4475

Hit Count: updated at: Thu, 08 Dec 2022 20:20:05 GMT